Location: Lesignano de� Bagni
(44.6500°N, 10.3000°E)
Time: 02:08:29
(UTC+00:00)

USA 186 - Pass Details

Date: 03 March 2021
Orbit: 275 x 454 km, 96.9° (Epoch: 20 April)

Event Time Altitude Azimuth Distance (km) Brightness Sun altitude
Exits shadow 18:28:40 17° 26° (NNE) 917 3.3 -14.9°
Drops below altitude 10° 18:29:33 10° 13° (NNE) 1,229 4.0 -15.0°
Sets 18:31:40 0° 359° (N) 2,104 5.4 -15.4°
